When you browse on this site, cookies collect data to enhance your experience and personalize the content and advertising you see.
Visit our Privacy Policy to learn more. By continuing to use the site, you agree to this use of cookies and data.
  • In Slovakia
  • List of Countries
  • For 7 days
  • Water Temperature
  • Satellite Maps
  • Weather Map
  • Weather Widgets
  • user-avatar
    Login

    Hourly Weather Mendoza

    Today, 26 May, Sunday

    Time Temperature Precipitation Wind Pressure Humidity
    00:00 +13°C° 0 mm 3 mps 695 mmHg 27%
    01:00 +12°C° 0 mm 3 mps 695 mmHg 29%
    02:00 +13°C° 0 mm 2 mps 695 mmHg 29%
    03:00 +12°C° 0 mm 2 mps 695 mmHg 29%
    04:00 +10°C° 0 mm 2 mps 695 mmHg 30%
    05:00 +10°C° 0 mm 2 mps 695 mmHg 30%
    06:00 +12°C° 0 mm 2 mps 696 mmHg 30%
    07:00 +12°C° 0 mm 2 mps 696 mmHg 31%
    08:00 +13°C° 0 mm 3 mps 697 mmHg 28%
    09:00 +16°C° 0 mm 3 mps 697 mmHg 25%
    10:00 +18°C° 0 mm 4 mps 698 mmHg 22%
    11:00 +18°C° 0 mm 4 mps 697 mmHg 21%
    12:00 +19°C° 0 mm 4 mps 697 mmHg 20%
    13:00 +19°C° 0 mm 5 mps 697 mmHg 19%
    14:00 +19°C° 0 mm 4 mps 697 mmHg 21%
    15:00 +18°C° 0 mm 4 mps 697 mmHg 22%
    16:00 +18°C° 0 mm 3 mps 697 mmHg 24%
    17:00 +16°C° 0 mm 2 mps 697 mmHg 28%
    18:00 +15°C° 0 mm 2 mps 697 mmHg 32%
    19:00 +13°C° 0 mm 1 mps 698 mmHg 36%
    20:00 +13°C° 0 mm 1 mps 698 mmHg 37%
    21:00 +12°C° 0 mm 1 mps 698 mmHg 39%
    22:00 +12°C° 0 mm 2 mps 698 mmHg 41%
    23:00 +10°C° 0 mm 2 mps 697 mmHg 42%

    Tomorrow, 27 May, Monday

    Time Temperature Precipitation Wind Pressure Humidity
    00:00 +10°C° 0 mm 2 mps 697 mmHg 42%
    01:00 +10°C° 0 mm 2 mps 697 mmHg 43%
    02:00 +9°C° 0 mm 2 mps 697 mmHg 43%
    03:00 +9°C° 0 mm 2 mps 697 mmHg 44%
    04:00 +9°C° 0 mm 2 mps 696 mmHg 44%
    05:00 +9°C° 0 mm 2 mps 696 mmHg 44%
    06:00 +9°C° 0 mm 2 mps 697 mmHg 44%
    07:00 +9°C° 0 mm 2 mps 697 mmHg 44%
    08:00 +10°C° 0 mm 2 mps 697 mmHg 40%
    09:00 +13°C° 0 mm 2 mps 697 mmHg 36%
    10:00 +15°C° 0 mm 2 mps 697 mmHg 32%
    11:00 +15°C° 0 mm 2 mps 697 mmHg 31%
    12:00 +16°C° 0 mm 2 mps 696 mmHg 30%
    13:00 +17°C° 0 mm 2 mps 696 mmHg 28%
    14:00 +17°C° 0 mm 2 mps 696 mmHg 29%
    15:00 +16°C° 0 mm 2 mps 696 mmHg 30%
    16:00 +16°C° 0 mm 2 mps 695 mmHg 31%
    17:00 +15°C° 0 mm 1 mps 696 mmHg 34%
    18:00 +14°C° 0 mm 1 mps 696 mmHg 38%
    19:00 +12°C° 0 mm 1 mps 696 mmHg 41%
    20:00 +12°C° 0 mm 1 mps 697 mmHg 42%
    21:00 +10°C° 0 mm 0 mps 697 mmHg 42%
    22:00 +10°C° 0 mm 0 mps 697 mmHg 43%
    23:00 +11°C° 0 mm 1 mps 697 mmHg 43%

    Day after tomorrow, 28 May, Tuesday

    Time Temperature Precipitation Wind Pressure Humidity
    00:00 +10°C° 0 mm 1 mps 697 mmHg 43%
    01:00 +10°C° 0 mm 1 mps 696 mmHg 43%
    02:00 +10°C° 0 mm 1 mps 696 mmHg 43%
    03:00 +10°C° 0 mm 1 mps 696 mmHg 43%
    04:00 +8°C° 0 mm 2 mps 696 mmHg 44%
    05:00 +9°C° 0 mm 2 mps 696 mmHg 44%
    06:00 +9°C° 0 mm 2 mps 697 mmHg 44%
    07:00 +9°C° 0 mm 2 mps 697 mmHg 45%
    08:00 +12°C° 0 mm 2 mps 697 mmHg 40%
    09:00 +14°C° 0 mm 2 mps 698 mmHg 36%
    10:00 +16°C° 0 mm 1 mps 698 mmHg 31%
    11:00 +16°C° 0 mm 2 mps 697 mmHg 30%
    12:00 +17°C° 0 mm 2 mps 697 mmHg 29%
    13:00 +18°C° 0 mm 3 mps 697 mmHg 27%
    14:00 +17°C° 0 mm 2 mps 697 mmHg 29%
    15:00 +17°C° 0 mm 2 mps 697 mmHg 30%
    16:00 +16°C° 0 mm 1 mps 697 mmHg 32%
    17:00 +16°C° 0 mm 2 mps 697 mmHg 33%
    18:00 +15°C° 0 mm 2 mps 697 mmHg 35%
    19:00 +14°C° 0 mm 2 mps 697 mmHg 37%
    20:00 +14°C° 0 mm 2 mps 697 mmHg 39%
    21:00 +13°C° 0 mm 2 mps 697 mmHg 40%
    22:00 +13°C° 0 mm 2 mps 697 mmHg 41%
    23:00 +12°C° 0.1 mm 3 mps 697 mmHg 44%

    29 May, Wednesday

    Time Temperature Precipitation Wind Pressure Humidity
    00:00 +11°C° 0.1 mm 3 mps 697 mmHg 47%
    01:00 +11°C° 0.1 mm 3 mps 697 mmHg 50%
    02:00 +10°C° 0.1 mm 3 mps 696 mmHg 54%
    03:00 +10°C° 0.1 mm 4 mps 696 mmHg 58%
    04:00 +8°C° 0.1 mm 4 mps 696 mmHg 63%
    05:00 +8°C° 0.1 mm 4 mps 696 mmHg 67%
    06:00 +8°C° 0.1 mm 4 mps 696 mmHg 71%
    07:00 +8°C° 0.1 mm 4 mps 696 mmHg 75%
    08:00 +8°C° 0.1 mm 4 mps 696 mmHg 74%
    09:00 +10°C° 0.1 mm 3 mps 696 mmHg 72%
    10:00 +11°C° 0.1 mm 3 mps 696 mmHg 71%
    11:00 +11°C° 0 mm 3 mps 696 mmHg 71%
    12:00 +11°C° 0 mm 4 mps 695 mmHg 71%
    13:00 +12°C° 0 mm 4 mps 695 mmHg 71%
    14:00 +12°C° 0 mm 4 mps 694 mmHg 73%
    15:00 +11°C° 0 mm 4 mps 694 mmHg 76%
    16:00 +11°C° 0 mm 3 mps 694 mmHg 78%
    17:00 +10°C° 0 mm 3 mps 695 mmHg 80%
    18:00 +10°C° 0 mm 3 mps 695 mmHg 82%
    19:00 +9°C° 0 mm 3 mps 695 mmHg 84%
    20:00 +8°C° 0 mm 4 mps 696 mmHg 85%
    21:00 +8°C° 0 mm 4 mps 696 mmHg 86%
    22:00 +8°C° 0 mm 4 mps 696 mmHg 87%
    23:00 +8°C° 0 mm 4 mps 696 mmHg 88%

    30 May, Thursday

    Time Temperature Precipitation Wind Pressure Humidity
    00:00 +9°C° 0 mm 3 mps 696 mmHg 88%
    01:00 +9°C° 0 mm 3 mps 697 mmHg 88%
    02:00 +8°C° 0 mm 3 mps 697 mmHg 88%
    03:00 +8°C° 0 mm 3 mps 697 mmHg 88%
    04:00 +8°C° 0 mm 3 mps 697 mmHg 88%
    05:00 +8°C° 0 mm 2 mps 698 mmHg 86%
    06:00 +8°C° 0 mm 2 mps 698 mmHg 84%
    07:00 +8°C° 0 mm 2 mps 699 mmHg 82%
    08:00 +9°C° 0 mm 2 mps 699 mmHg 76%
    09:00 +10°C° 0 mm 2 mps 698 mmHg 70%
    10:00 +13°C° 0 mm 2 mps 698 mmHg 64%
    11:00 +13°C° 0 mm 2 mps 698 mmHg 62%
    12:00 +13°C° 0 mm 3 mps 697 mmHg 61%
    13:00 +13°C° 0 mm 3 mps 696 mmHg 59%
    14:00 +13°C° 0 mm 3 mps 696 mmHg 62%
    15:00 +13°C° 0 mm 2 mps 696 mmHg 64%
    16:00 +13°C° 0 mm 2 mps 696 mmHg 67%
    17:00 +12°C° 0 mm 2 mps 696 mmHg 72%
    18:00 +12°C° 0 mm 2 mps 697 mmHg 76%
    19:00 +11°C° 0 mm 1 mps 697 mmHg 81%
    20:00 +9°C° 0 mm 2 mps 697 mmHg 83%
    21:00 +9°C° 0 mm 2 mps 697 mmHg 85%
    22:00 +8°C° 0 mm 2 mps 697 mmHg 86%
    23:00 +8°C° 0 mm 2 mps 696 mmHg 84%

    31 May, Friday

    Time Temperature Precipitation Wind Pressure Humidity
    00:00 +8°C° 0 mm 2 mps 696 mmHg 81%
    01:00 +8°C° 0 mm 2 mps 696 mmHg 78%
    02:00 +8°C° 0 mm 2 mps 696 mmHg 76%
    03:00 +9°C° 0 mm 1 mps 695 mmHg 73%
    04:00 +8°C° 0 mm 1 mps 695 mmHg 71%
    05:00 +8°C° 0 mm 1 mps 695 mmHg 71%
    06:00 +9°C° 0 mm 1 mps 695 mmHg 71%
    07:00 +9°C° 0 mm 1 mps 695 mmHg 71%
    08:00 +9°C° 0 mm 2 mps 695 mmHg 67%
    09:00 +10°C° 0 mm 2 mps 695 mmHg 64%
    10:00 +13°C° 0 mm 2 mps 695 mmHg 61%
    11:00 +13°C° 0 mm 3 mps 694 mmHg 58%
    12:00 +13°C° 0 mm 3 mps 694 mmHg 56%
    13:00 +14°C° 0 mm 3 mps 694 mmHg 53%
    14:00 +14°C° 0 mm 3 mps 694 mmHg 52%
    15:00 +15°C° 0 mm 2 mps 694 mmHg 51%
    16:00 +15°C° 0 mm 2 mps 694 mmHg 51%
    17:00 +14°C° 0 mm 2 mps 694 mmHg 55%
    18:00 +13°C° 0 mm 2 mps 694 mmHg 60%
    19:00 +11°C° 0 mm 1 mps 694 mmHg 65%
    20:00 +10°C° 0 mm 2 mps 695 mmHg 64%
    21:00 +10°C° 0 mm 2 mps 695 mmHg 63%
    22:00 +10°C° 0 mm 2 mps 695 mmHg 62%
    23:00 +10°C° 0 mm 2 mps 695 mmHg 62%
    Show more